Orbital Elements at Epoch 2459000.5 (2020-May-31.0) TDB
Reference: JPL 15 (heliocentric ecliptic J2000)
Element | Value | Uncertainty (1-sigma) | Units |
e | .1215878190541741 | 5.1144e-08 | |
a | 3.154948194589256 | 3.1618e-08 | au |
q | 2.771344924380244 | 1.6769e-07 | au |
i | 3.410729473691043 | 5.0355e-06 | deg |
node | 81.35861572716308 | 0.00010171 | deg |
peri | 258.1641376944378 | 0.00010421 | deg |
M | 227.7640237093305 | 2.4766e-05 | deg |
tp | 2459752.354668241942 (2022-Jun-21.85466824) | 0.0001457 | TDB |
period | 2046.853573131576 5.60 | 3.077e-05 8.424e-08 | d yr |
n | .1758797037197045 | 2.6439e-09 | deg/d |
Q | 3.538551464798268 | 3.5462e-08 | au |
|
| | Orbit Determination Parameters
Additional Information
|